| time (UTC) | temp F | wind direction | speed knots | gust knots | rain 1hr in | rain 24hr in | rain mn in | humidity % | barometer mb |
| 20260504025604 | 49 | 61 | 0.0 | 0.9 | 0.00 | 0.00 | 0.00 | 49 | 1015.8 |
| 20260504025101 | 50 | 97 | 0.0 | 0.9 | 0.00 | 0.00 | 0.00 | 49 | 1015.8 |
| 20260504024558 | 50 | 50 | 0.9 | 1.7 | 0.00 | 0.00 | 0.00 | 47 | 1015.6 |
| 20260504024055 | 49 | 26 | 0.9 | 0.9 | 0.00 | 0.00 | 0.00 | 50 | 1015.7 |
| 20260504023551 | 51 | 23 | 0.9 | 0.9 | 0.00 | 0.00 | 0.00 | 48 | 1015.7 |
| 20260504023047 | 50 | 54 | 0.9 | 1.7 | 0.00 | 0.00 | 0.00 | 47 | 1015.5 |
| 20260504022543 | 51 | 57 | 0.0 | 0.9 | 0.00 | 0.00 | 0.00 | 46 | 1015.5 |
| 20260504022040 | 50 | 153 | 0.0 | 0.0 | 0.00 | 0.00 | 0.00 | 49 | 1015.3 |
| 20260504021538 | 51 | 228 | 0.0 | 0.0 | 0.00 | 0.00 | 0.00 | 52 | 1015.4 |
| 20260504021034 | 52 | 140 | 0.0 | 0.0 | 0.00 | 0.00 | 0.00 | 46 | 1015.5 |
| 20260504020531 | 52 | 132 | 0.0 | 0.0 | 0.00 | 0.00 | 0.00 | 45 | 1015.4 |
| 20260504020028 | 52 | 133 | 0.0 | 0.0 | 0.00 | 0.00 | 0.00 | 45 | 1015.3 |
| 20260504015524 | 52 | 120 | 0.0 | 0.0 | 0.00 | 0.00 | 0.00 | 44 | 1015.4 |
| 20260504015020 | 52 | 65 | 0.0 | 0.0 | 0.00 | 0.00 | 0.00 | 44 | 1015.4 |
| 20260504014516 | 52 | 70 | 0.0 | 0.0 | 0.00 | 0.00 | 0.00 | 43 | 1015.3 |
| 20260504014014 | 52 | 117 | 0.0 | 0.0 | 0.00 | 0.00 | 0.00 | 44 | 1015.3 |
| 20260504013512 | 52 | 130 | 0.0 | 0.0 | 0.00 | 0.00 | 0.00 | 43 | 1015.3 |
| 20260504013008 | 52 | 100 | 0.0 | 0.0 | 0.00 | 0.00 | 0.00 | 44 | 1015.2 |
| 20260504012506 | 52 | 61 | 0.0 | 0.9 | 0.00 | 0.00 | 0.00 | 43 | 1015.3 |
| 20260504012003 | 52 | 135 | 0.0 | 0.9 | 0.00 | 0.00 | 0.00 | 43 | 1015.2 |
| 20260504011459 | 52 | 106 | 0.0 | 0.0 | 0.00 | 0.00 | 0.00 | 44 | 1015.1 |
| 20260504010955 | 52 | 89 | 0.0 | 0.0 | 0.00 | 0.00 | 0.00 | 43 | 1015.0 |
| 20260504010452 | 52 | 60 | 0.0 | 0.0 | 0.00 | 0.00 | 0.00 | 43 | 1015.0 |
| 20260504005947 | 52 | 57 | 0.0 | 0.0 | 0.00 | 0.00 | 0.00 | 44 | 1015.1 |
| 20260504005445 | 52 | 68 | 0.0 | 0.0 | 0.00 | 0.00 | 0.00 | 44 | 1015.1 |
| 20260504004942 | 53 | 85 | 0.0 | 0.0 | 0.00 | 0.00 | 0.00 | 43 | 1015.2 |
| 20260504004439 | 53 | 91 | 0.0 | 0.0 | 0.00 | 0.00 | 0.00 | 42 | 1015.2 |
| 20260504003937 | 55 | 55 | 0.0 | 1.7 | 0.00 | 0.00 | 0.00 | 41 | 1015.0 |
| 20260504003433 | 55 | 104 | 0.9 | 1.7 | 0.00 | 0.00 | 0.00 | 39 | 1015.2 |
| 20260504002929 | 54 | 135 | 0.0 | 0.0 | 0.00 | 0.00 | 0.00 | 40 | 1015.1 |
| 20260504002426 | 55 | 59 | 0.0 | 0.0 | 0.00 | 0.00 | 0.00 | 40 | 1014.9 |
| 20260504001924 | 56 | 115 | 0.0 | 1.7 | 0.00 | 0.00 | 0.00 | 38 | 1015.0 |
| 20260504001421 | 57 | 136 | 0.0 | 1.7 | 0.00 | 0.00 | 0.00 | 37 | 1015.0 |
| 20260504000918 | 57 | 117 | 0.9 | 1.7 | 0.00 | 0.00 | 0.00 | 37 | 1015.1 |
| 20260504000416 | 57 | 106 | 0.9 | 1.7 | 0.00 | 0.00 | 0.00 | 37 | 1015.0 |
| 20260503235912 | 57 | 135 | 1.7 | 1.7 | 0.00 | 0.00 | 0.00 | 37 | 1014.7 |
| 20260503235410 | 57 | 133 | 1.7 | 2.6 | 0.00 | 0.00 | 0.00 | 38 | 1014.8 |
| 20260503234908 | 58 | 166 | 0.9 | 2.6 | 0.00 | 0.00 | 0.00 | 38 | 1014.8 |
| 20260503234405 | 58 | 125 | 1.7 | 1.7 | 0.00 | 0.00 | 0.00 | 37 | 1014.6 |
| 20260503233902 | 59 | 135 | 2.6 | 2.6 | 0.00 | 0.00 | 0.00 | 36 | 1014.8 |
| 20260503233359 | 59 | 145 | 1.7 | 3.5 | 0.00 | 0.00 | 0.00 | 35 | 1014.7 |
| 20260503232855 | 59 | 153 | 3.5 | 3.5 | 0.00 | 0.00 | 0.00 | 35 | 1014.8 |
| 20260503232352 | 60 | 115 | 3.5 | 6.1 | 0.00 | 0.00 | 0.00 | 34 | 1014.7 |
| 20260503231850 | 60 | 124 | 6.1 | 13.0 | 0.00 | 0.00 | 0.00 | 33 | 1014.6 |
| 20260503231347 | 60 | 104 | 4.3 | 7.0 | 0.00 | 0.00 | 0.00 | 33 | 1014.9 |
| 20260503230843 | 61 | 254 | 1.7 | 3.5 | 0.00 | 0.00 | 0.00 | 34 | 1014.7 |
| 20260503230340 | 61 | 149 | 1.7 | 5.2 | 0.00 | 0.00 | 0.00 | 34 | 1014.7 |
| 20260503225838 | 61 | 141 | 2.6 | 7.8 | 0.00 | 0.00 | 0.00 | 33 | 1014.7 |
| 20260503225333 | 61 | 145 | 2.6 | 3.5 | 0.00 | 0.00 | 0.00 | 33 | 1014.7 |
| 20260503224830 | 62 | 106 | 6.1 | 7.8 | 0.00 | 0.00 | 0.00 | 32 | 1014.6 |
| 20260503224327 | 62 | 173 | 3.5 | 3.5 | 0.00 | 0.00 | 0.00 | 33 | 1014.4 |
| 20260503223825 | 62 | 250 | 3.5 | 5.2 | 0.00 | 0.00 | 0.00 | 33 | 1014.4 |
| 20260503223323 | 62 | 137 | 1.7 | 2.6 | 0.00 | 0.00 | 0.00 | 32 | 1014.5 |
| 20260503222818 | 62 | 210 | 3.5 | 3.5 | 0.00 | 0.00 | 0.00 | 32 | 1014.4 |
| 20260503222317 | 62 | 225 | 2.6 | 7.0 | 0.00 | 0.00 | 0.00 | 34 | 1014.6 |
| 20260503221814 | 62 | 137 | 7.0 | 13.0 | 0.00 | 0.00 | 0.00 | 31 | 1014.6 |
| 20260503221313 | 63 | 120 | 4.3 | 6.1 | 0.00 | 0.00 | 0.00 | 32 | 1014.8 |
| 20260503220808 | 62 | 233 | 7.8 | 7.8 | 0.00 | 0.00 | 0.00 | 32 | 1014.7 |
| 20260503220306 | 62 | 143 | 5.2 | 9.6 | 0.00 | 0.00 | 0.00 | 31 | 1014.8 |
| 20260503215802 | 63 | 201 | 5.2 | 7.0 | 0.00 | 0.00 | 0.00 | 31 | 1014.7 |
| 20260503215259 | 62 | 158 | 3.5 | 7.8 | 0.00 | 0.00 | 0.00 | 30 | 1014.9 |
| 20260503214757 | 62 | 129 | 3.5 | 6.1 | 0.00 | 0.00 | 0.00 | 30 | 1014.8 |
| 20260503214254 | 62 | 214 | 7.0 | 11.3 | 0.00 | 0.00 | 0.00 | 33 | 1014.7 |
| 20260503213752 | 62 | 208 | 9.6 | 12.2 | 0.00 | 0.00 | 0.00 | 33 | 1014.7 |
| 20260503213249 | 63 | 198 | 5.2 | 8.7 | 0.00 | 0.00 | 0.00 | 30 | 1015.0 |
| 20260503212746 | 62 | 190 | 6.1 | 11.3 | 0.00 | 0.00 | 0.00 | 31 | 1014.7 |
| 20260503212243 | 63 | 209 | 4.3 | 6.1 | 0.00 | 0.00 | 0.00 | 31 | 1014.9 |
| 20260503211741 | 62 | 214 | 6.1 | 8.7 | 0.00 | 0.00 | 0.00 | 32 | 1014.8 |
| 20260503211237 | 62 | 195 | 5.2 | 6.1 | 0.00 | 0.00 | 0.00 | 32 | 1014.8 |
| 20260503210732 | 62 | 226 | 9.6 | 13.0 | 0.00 | 0.00 | 0.00 | 31 | 1014.9 |
| 20260503210230 | 62 | 232 | 5.2 | 7.8 | 0.00 | 0.00 | 0.00 | 32 | 1014.8 |
| 20260503205725 | 63 | 202 | 5.2 | 9.6 | 0.00 | 0.00 | 0.00 | 31 | 1014.7 |
| 20260503205221 | 62 | 166 | 5.2 | 13.9 | 0.00 | 0.00 | 0.00 | 31 | 1014.9 |
| 20260503204718 | 63 | 161 | 2.6 | 6.1 | 0.00 | 0.00 | 0.00 | 33 | 1014.7 |
| 20260503204216 | 62 | 145 | 4.3 | 8.7 | 0.00 | 0.00 | 0.00 | 31 | 1014.7 |
| 20260503203713 | 62 | 181 | 3.5 | 9.6 | 0.00 | 0.00 | 0.00 | 31 | 1014.8 |
| 20260503203210 | 62 | 208 | 7.0 | 14.8 | 0.00 | 0.00 | 0.00 | 33 | 1014.8 |
| 20260503202708 | 62 | 134 | 2.6 | 5.2 | 0.00 | 0.00 | 0.00 | 31 | 1015.0 |
| 20260503202205 | 62 | 189 | 3.5 | 5.2 | 0.00 | 0.00 | 0.00 | 32 | 1015.0 |
| 20260503201703 | 62 | 125 | 6.1 | 11.3 | 0.00 | 0.00 | 0.00 | 31 | 1015.1 |
| 20260503201200 | 62 | 270 | 5.2 | 9.6 | 0.00 | 0.00 | 0.00 | 31 | 1015.0 |
| 20260503200656 | 61 | 106 | 4.3 | 8.7 | 0.00 | 0.00 | 0.00 | 32 | 1015.0 |
| 20260503200153 | 62 | 112 | 3.5 | 9.6 | 0.00 | 0.00 | 0.00 | 31 | 1015.0 |
| 20260503195650 | 60 | 201 | 5.2 | 7.8 | 0.00 | 0.00 | 0.00 | 31 | 1015.5 |
| 20260503195147 | 60 | 220 | 9.6 | 12.2 | 0.00 | 0.00 | 0.00 | 32 | 1015.3 |
| 20260503194644 | 60 | 203 | 7.8 | 11.3 | 0.00 | 0.00 | 0.00 | 32 | 1015.6 |
| 20260503194139 | 62 | 256 | 3.5 | 12.2 | 0.00 | 0.00 | 0.00 | 32 | 1015.5 |
| 20260503193636 | 61 | 195 | 6.1 | 13.0 | 0.00 | 0.00 | 0.00 | 34 | 1015.5 |
| 20260503193132 | 61 | 182 | 7.8 | 11.3 | 0.00 | 0.00 | 0.00 | 33 | 1015.5 |
| 20260503192627 | 61 | 116 | 6.1 | 9.6 | 0.00 | 0.00 | 0.00 | 31 | 1015.7 |
| 20260503192123 | 60 | 231 | 4.3 | 6.1 | 0.00 | 0.00 | 0.00 | 33 | 1015.7 |
| 20260503191621 | 60 | 150 | 8.7 | 12.2 | 0.00 | 0.00 | 0.00 | 32 | 1015.8 |
| 20260503191118 | 61 | 224 | 2.6 | 5.2 | 0.00 | 0.00 | 0.00 | 36 | 1016.0 |
| 20260503190615 | 61 | 176 | 2.6 | 6.1 | 0.00 | 0.00 | 0.00 | 32 | 1015.9 |
| 20260503190111 | 60 | 92 | 3.5 | 5.2 | 0.00 | 0.00 | 0.00 | 31 | 1016.1 |
| 20260503185608 | 60 | 200 | 7.0 | 11.3 | 0.00 | 0.00 | 0.00 | 33 | 1016.1 |
| 20260503185108 | 61 | 205 | 7.8 | 8.7 | 0.00 | 0.00 | 0.00 | 31 | 1016.1 |
| 20260503184603 | 59 | 157 | 6.1 | 9.6 | 0.00 | 0.00 | 0.00 | 32 | 1016.1 |
| 20260503184100 | 59 | 245 | 6.1 | 9.6 | 0.00 | 0.00 | 0.00 | 32 | 1016.2 |
| 20260503183557 | 60 | 184 | 8.7 | 9.6 | 0.00 | 0.00 | 0.00 | 32 | 1016.3 |
| 20260503183054 | 58 | 221 | 5.2 | 12.2 | 0.00 | 0.00 | 0.00 | 33 | 1016.3 |
| 20260503182552 | 59 | 169 | 3.5 | 8.7 | 0.00 | 0.00 | 0.00 | 34 | 1016.3 |
| 20260503182050 | 58 | 175 | 5.2 | 7.0 | 0.00 | 0.00 | 0.00 | 35 | 1016.3 |
| 20260503181547 | 57 | 237 | 5.2 | 8.7 | 0.00 | 0.00 | 0.00 | 37 | 1016.5 |
| 20260503181043 | 58 | 219 | 4.3 | 11.3 | 0.00 | 0.00 | 0.00 | 33 | 1016.6 |
| 20260503180540 | 58 | 159 | 7.8 | 13.0 | 0.00 | 0.00 | 0.00 | 35 | 1016.8 |
| 20260503180038 | 58 | 132 | 5.2 | 13.0 | 0.00 | 0.00 | 0.00 | 34 | 1016.8 |
| 20260503175535 | 58 | 200 | 4.3 | 8.7 | 0.00 | 0.00 | 0.00 | 34 | 1016.7 |
| 20260503175032 | 57 | 182 | 9.6 | 13.9 | 0.00 | 0.00 | 0.00 | 38 | 1016.8 |
| 20260503174530 | 57 | 187 | 2.6 | 6.1 | 0.00 | 0.00 | 0.00 | 35 | 1016.9 |
| 20260503174026 | 57 | 193 | 6.1 | 7.8 | 0.00 | 0.00 | 0.00 | 36 | 1016.8 |
| 20260503173520 | 57 | 107 | 3.5 | 12.2 | 0.00 | 0.00 | 0.00 | 38 | 1017.1 |
| 20260503173017 | 55 | 127 | 5.2 | 13.0 | 0.00 | 0.00 | 0.00 | 38 | 1017.0 |
| 20260503172515 | 56 | 98 | 6.1 | 11.3 | 0.00 | 0.00 | 0.00 | 37 | 1016.9 |
| 20260503172012 | 56 | 135 | 5.2 | 8.7 | 0.00 | 0.00 | 0.00 | 38 | 1017.2 |
| 20260503171508 | 57 | 145 | 3.5 | 6.1 | 0.00 | 0.00 | 0.00 | 36 | 1017.1 |
| 20260503171006 | 56 | 210 | 7.0 | 11.3 | 0.00 | 0.00 | 0.00 | 39 | 1017.2 |
| 20260503170502 | 56 | 212 | 10.4 | 19.1 | 0.00 | 0.00 | 0.00 | 39 | 1017.2 |
| 20260503150854 | 51 | 165 | 4.3 | 11.3 | 0.00 | 0.00 | 0.00 | 48 | 1018.3 |
| 20260503150350 | 52 | 222 | 3.5 | 9.6 | 0.00 | 0.00 | 0.00 | 47 | 1018.2 |
| 20260503140315 | 49 | 153 | 3.5 | 8.7 | 0.00 | 0.00 | 0.00 | 52 | 1018.3 |
| 20260503131244 | 47 | 190 | 7.0 | 9.6 | 0.00 | 0.00 | 0.00 | 55 | 1018.7 |
| 20260503130742 | 46 | 240 | 5.2 | 8.7 | 0.00 | 0.00 | 0.00 | 56 | 1018.8 |
| 20260503130239 | 46 | 240 | 9.6 | 12.2 | 0.00 | 0.00 | 0.00 | 57 | 1018.6 |
| 20260503120205 | 44 | 196 | 7.0 | 9.6 | 0.00 | 0.00 | 0.00 | 61 | 1018.1 |
| 20260503110632 | 40 | 230 | 1.7 | 5.2 | 0.00 | 0.00 | 0.00 | 67 | 1017.3 |
| 20260503110130 | 40 | 199 | 1.7 | 3.5 | 0.00 | 0.00 | 0.00 | 68 | 1017.3 |
| 20260503081445 | 40 | 208 | 0.9 | 2.6 | 0.00 | 0.00 | 0.00 | 76 | 1015.9 |
| 20260503080943 | 40 | 177 | 1.7 | 2.6 | 0.00 | 0.00 | 0.00 | 76 | 1015.9 |
| 20260503080439 | 40 | 179 | 1.7 | 2.6 | 0.00 | 0.00 | 0.00 | 75 | 1015.7 |
| 20260503072915 | 41 | 156 | 0.9 | 2.6 | 0.00 | 0.00 | 0.00 | 76 | 1015.6 |
| 20260503072413 | 41 | 216 | 1.7 | 2.6 | 0.00 | 0.00 | 0.00 | 76 | 1015.4 |
| 20260503071909 | 41 | 120 | 1.7 | 2.6 | 0.00 | 0.00 | 0.00 | 76 | 1015.4 |
| 20260503071407 | 40 | 159 | 0.0 | 2.6 | 0.00 | 0.00 | 0.00 | 76 | 1015.3 |
| 20260503070902 | 40 | 163 | 0.9 | 1.7 | 0.00 | 0.00 | 0.00 | 77 | 1015.3 |
| 20260503070400 | 40 | 152 | 0.0 | 1.7 | 0.00 | 0.00 | 0.00 | 76 | 1015.3 |
| 20260503060325 | 40 | 125 | 0.9 | 1.7 | 0.00 | 0.00 | 0.00 | 76 | 1015.0 |
| 20260503054814 | 40 | 157 | 1.7 | 1.7 | 0.00 | 0.00 | 0.00 | 75 | 1015.3 |
| 20260503054309 | 41 | 190 | 2.6 | 2.6 | 0.00 | 0.00 | 0.00 | 75 | 1015.3 |
| 20260503053807 | 41 | 204 | 2.6 | 3.5 | 0.00 | 0.00 | 0.00 | 74 | 1015.1 |
| 20260503053306 | 41 | 196 | 2.6 | 5.2 | 0.00 | 0.00 | 0.00 | 74 | 1015.3 |
| 20260503052801 | 41 | 226 | 2.6 | 5.2 | 0.00 | 0.00 | 0.00 | 74 | 1015.2 |
| 20260503052259 | 41 | 221 | 3.5 | 5.2 | 0.00 | 0.00 | 0.00 | 73 | 1015.2 |
| 20260503051754 | 41 | 198 | 2.6 | 3.5 | 0.00 | 0.00 | 0.00 | 74 | 1015.3 |
| 20260503051251 | 41 | 201 | 3.5 | 3.5 | 0.00 | 0.00 | 0.00 | 73 | 1015.3 |
| 20260503050748 | 41 | 233 | 1.7 | 5.2 | 0.00 | 0.00 | 0.00 | 73 | 1015.3 |
| 20260503050244 | 41 | 183 | 2.6 | 5.2 | 0.00 | 0.00 | 0.00 | 73 | 1015.4 |
| 20260503045742 | 41 | 227 | 1.7 | 2.6 | 0.00 | 0.00 | 0.00 | 73 | 1015.3 |
| 20260503045240 | 42 | 184 | 1.7 | 1.7 | 0.00 | 0.00 | 0.00 | 73 | 1015.2 |
| 20260503044736 | 42 | 179 | 1.7 | 3.5 | 0.00 | 0.00 | 0.00 | 72 | 1015.2 |
| 20260503044233 | 42 | 194 | 1.7 | 2.6 | 0.00 | 0.00 | 0.00 | 72 | 1015.1 |
| 20260503043730 | 42 | 242 | 3.5 | 3.5 | 0.00 | 0.00 | 0.00 | 71 | 1015.1 |
| 20260503043227 | 42 | 218 | 2.6 | 6.1 | 0.00 | 0.00 | 0.00 | 70 | 1015.0 |
| 20260503042723 | 42 | 208 | 3.5 | 5.2 | 0.00 | 0.00 | 0.00 | 71 | 1015.1 |
| 20260503042220 | 43 | 207 | 3.5 | 5.2 | 0.00 | 0.00 | 0.00 | 70 | 1015.2 |
| 20260503041716 | 42 | 244 | 0.9 | 2.6 | 0.00 | 0.00 | 0.00 | 71 | 1015.2 |
| 20260503041214 | 43 | 238 | 1.7 | 3.5 | 0.00 | 0.00 | 0.00 | 69 | 1015.2 |
| 20260503040711 | 43 | 224 | 0.9 | 2.6 | 0.00 | 0.00 | 0.00 | 68 | 1015.2 |
| 20260503040209 | 44 | 246 | 0.9 | 2.6 | 0.00 | 0.00 | 0.00 | 68 | 1015.4 |
| 20260503035705 | 44 | 221 | 7.0 | 7.8 | 0.00 | 0.00 | 0.00 | 67 | 1015.6 |
| 20260503035203 | 44 | 220 | 2.6 | 5.2 | 0.00 | 0.00 | 0.00 | 67 | 1015.3 |
| 20260503034700 | 44 | 237 | 3.5 | 7.0 | 0.00 | 0.00 | 0.00 | 66 | 1015.4 |
| 20260503034157 | 44 | 208 | 4.3 | 7.8 | 0.00 | 0.00 | 0.00 | 66 | 1015.3 |
| 20260503033654 | 44 | 233 | 4.3 | 7.0 | 0.00 | 0.00 | 0.00 | 65 | 1015.0 |
| 20260503033152 | 44 | 237 | 2.6 | 5.2 | 0.00 | 0.00 | 0.00 | 64 | 1015.4 |
| 20260503032649 | 44 | 200 | 1.7 | 2.6 | 0.00 | 0.00 | 0.00 | 63 | 1015.3 |
| 20260503032148 | 44 | 203 | 3.5 | 6.1 | 0.00 | 0.00 | 0.00 | 64 | 1015.2 |
| 20260503031645 | 45 | 230 | 3.5 | 5.2 | 0.00 | 0.00 | 0.00 | 63 | 1015.2 |
| 20260503031143 | 45 | 198 | 3.5 | 5.2 | 0.00 | 0.00 | 0.00 | 62 | 1015.3 |
| 20260503030638 | 45 | 211 | 2.6 | 5.2 | 0.00 | 0.00 | 0.00 | 62 | 1015.3 |
| 20260503030135 | 45 | 209 | 3.5 | 6.1 | 0.00 | 0.00 | 0.00 | 61 | 1015.3 |